Dewpoint
40 40 41 42 42 42 42 37 29 40 41 31 29 25 21 22 22 23 24 22 17 18 19 16 14 16 22 27 31 29 35 26 18 18 21 23 21 20 22 22 24 26 23 22
40 41 41 41 41 42 39 33 31 42 39 24 25 25 24 24 22 21 25 25 25 24 21 21 22 20 20 23 34 33 37 32 21 19 20 21 20 22 24 28 28 25 23 23
40 41 41 41 42 43 41 34 28 33 36 34 28 24 25 26 30 26 25 24 25 25 22 23 23 24 25 28 34 36 36 36 32 20 19 19 20 21 23 25 23 24 26 25
40 41 41 41 42 43 41 35 30 33 26 29 30 26 25 25 25 30 30 28 27 26 23 23 23 23 21 27 38 34 36 32 34 28 21 20 24 24 24 23 25 23 24 26
40 41 41 42 42 43 40 32 31 35 30 30 31 30 27 24 25 25 25 25 24 27 26 23 19 18 18 27 37 36 37 32 35 28 25 20 18 21 25 27 27 24 24 24
40 41 41 42 43 43 38 38 37 35 31 28 28 28 28 27 26 25 27 26 26 25 26 26 26 26 25 27 31 35 33 33 32 27 26 26 24 24 23 23 27 24 22 25
41 41 42 43 43 43 41 39 37 31 26 30 28 26 29 28 27 26 27 27 26 26 28 28 28 28 26 25 28 35 33 33 32 30 25 22 26 27 28 27 26 28 26 25
42 42 42 43 43 43 42 41 38 34 27 27 29 27 26 29 30 29 28 27 30 31 29 26 25 27 30 31 34 34 35 34 31 28 26 26 28 29 28 27 27 28 27 24
42 42 42 43 44 43 42 41 42 37 31 28 30 28 27 26 27 28 29 31 30 29 27 25 24 19 23 24 32 37 35 35 32 30 27 23 27 28 31 33 28 28 26 28
42 43 43 43 43 43 42 41 43 38 32 32 30 28 28 29 28 27 28 29 30 31 27 25 23 21 24 20 21 32 33 34 31 30 29 29 32 33 35 31 29 31 27 27
43 43 43 43 43 44 44 41 43 38 33 35 32 31 30 31 30 27 28 27 28 29 25 22 21 22 23 22 24 29 30 30 30 31 28 24 30 35 31 31 35 34 32 29
42 43 43 43 43 43 44 38 42 43 36 35 38 37 35 32 31 31 30 28 28 29 25 25 24 21 25 24 20 31 25 27 28 31 26 29 31 34 35 38 36 36 36 35
42 42 42 43 43 44 43 40 40 39 33 33 34 32 34 37 36 36 29 33 30 31 34 30 26 22 23 17 23 25 30 33 32 31 30 30 30 34 40 40 35 35 36 39
43 42 42 42 43 43 43 41 41 38 35 28 28 32 30 36 35 40 38 34 40 38 38 31 28 25 29 24 24 26 27 34 33 31 30 30 29 32 35 36 36 35 36 37
44 44 43 43 42 42 42 42 42 38 29 25 25 35 33 30 34 37 39 36 35 35 30 32 30 32 31 32 31 27 27 26 27 23 26 28 29 30 35 36 35 37 36 36
45 44 44 43 42 41 41 33 41 40 37 29 26 34 33 38 39 38 38 37 36 36 35 34 34 37 32 28 26 29 29 28 31 29 31 33 35 38 39 40 40 41 40 39
43 42 43 44 43 42 35 32 38 41 38 32 27 31 36 38 38 37 38 39 37 37 36 35 33 33 32 33 29 29 31 31 30 33 35 36 38 37 38 37 35 34 33 35
43 43 44 43 43 40 37 42 41 39 36 35 26 30 34 38 35 34 38 35 38 37 36 35 32 32 32 27 30 29 29 31 30 32 33 36 39 37 36 33 30 28 27 26
43 43 43 42 38 36 38 42 40 40 36 29 30 27 27 37 35 36 35 36 32 34 33 33 33 29 28 27 28 35 38 37 37 37 38 38 37 36 32 30 28 25 24 24
41 38 35 32 39 43 42 39 35 35 36 33 28 32 29 34 33 31 32 30 28 27 29 34 32 28 30 34 38 37 36 35 35 37 36 35 33 30 28 26 25 24 23 23
38 34 35 41 39 36 33 29 30 30 29 32 32 31 30 33 29 30 30 29 28 25 25 28 27 27 30 37 36 34 33 32 32 33 35 34 30 27 25 24 23 23 22 21
39 39 41 39 35 32 28 26 29 27 26 30 30 30 32 33 31 30 30 27 28 23 29 29 24 30 33 33 32 32 32 31 29 28 28 27 25 24 23 23 22 22 22 21
36 34 33 32 29 24 22 21 24 25 29 31 31 29 31 32 31 29 27 25 24 31 29 26 28 30 30 30 30 29 28 28 27 26 26 25 25 24 23 22 22 22 21 20
30 26 23 21 20 22 22 25 28 28 30 32 32 30 29 31 28 28 25 26 30 25 21 23 26 26 27 28 28 27 26 25 25 24 23 23 22 22 22 22 21 20 19 19
24 23 21 20 23 23 24 25 26 26 29 33 32 31 31 29 27 28 27 26 24 23 21 22 25 25 25 24 24 24 23 23 22 22 21 21 21 20 20 21 20 19 18 17
21 19 20 21 20 18 20 21 22 26 26 32 33 29 28 27 27 25 21 20 18 17 19 23 24 24 23 23 23 23 22 22 21 21 21 21 20 19 19 19 19 19 18 17
19 18 20 19 18 17 19 20 21 25 26 28 28 23 20 25 19 16 19 15 18 20 21 23 23 22 21 22 22 22 21 21 20 20 20 20 20 20 18 16 17 17 16 16
Wind_Speed
24 23 22 21 21 20 18 6 9 11 20 15 9 22 10 7 7 5 4 4 14 10 7 8 7 9 8 13 12 14 9 7 17 34 21 3 13 25 24 21 8 5 13 19
25 25 24 24 23 23 5 10 10 11 13 20 20 14 22 23 13 13 3 4 6 2 3 6 10 11 11 13 3 6 16 7 10 12 15 27 22 9 11 5 6 22 21 13
28 27 27 27 26 26 19 6 10 11 19 16 20 24 24 25 16 32 25 15 17 18 21 15 11 11 8 15 13 5 10 11 19 23 12 12 9 17 13 14 18 11 21 17
30 30 30 30 30 30 22 13 12 9 15 24 23 25 13 28 23 17 17 9 26 17 9 13 23 19 21 17 6 2 3 14 19 20 26 21 5 9 7 8 13 21 17 22
33 33 33 33 32 32 26 12 8 9 9 13 28 20 20 24 21 22 20 27 18 17 23 14 10 11 14 9 2 4 8 9 24 21 15 27 27 23 18 17 11 16 17 22
35 35 35 35 34 31 16 16 7 6 12 23 25 32 27 23 23 21 26 23 20 23 33 29 26 24 22 18 15 3 3 3 9 14 6 10 16 29 25 25 8 8 18 15
37 36 36 35 35 36 23 7 8 10 18 23 27 23 28 27 26 29 14 25 25 34 16 15 20 26 27 26 25 19 9 7 4 7 7 12 6 12 22 24 28 20 20 15
37 37 37 38 39 39 27 13 10 13 24 23 23 27 22 25 22 29 30 27 23 7 13 10 10 5 9 17 22 22 23 11 4 4 12 7 4 9 17 17 22 20 21 17
37 36 36 37 38 40 29 26 14 8 14 30 19 23 25 23 18 24 29 26 16 7 9 10 8 6 4 4 4 9 15 20 13 4 9 14 1 11 4 13 21 21 18 19
35 34 34 35 37 39 33 13 20 12 11 9 23 23 21 19 17 6 2 6 14 19 11 10 8 10 5 7 4 4 5 7 16 12 6 9 14 8 4 7 9 11 6 11
31 31 31 30 32 34 31 23 27 25 8 8 18 23 15 16 22 12 6 5 3 9 13 10 8 9 6 12 9 5 7 6 3 4 2 9 9 3 1 6 16 10 6 17
33 33 33 33 33 33 33 8 17 16 6 2 5 9 14 21 26 19 9 7 3 11 8 8 5 8 3 7 14 9 8 10 9 14 9 10 11 6 2 8 1 2 10 9
37 36 36 36 35 34 33 14 18 12 5 3 6 9 12 18 15 14 17 9 11 7 2 4 8 7 10 16 14 21 9 10 6 7 18 27 22 14 9 15 9 11 9 11
41 40 38 38 37 37 35 20 20 18 6 5 8 16 24 13 10 16 14 14 3 2 2 11 8 6 5 11 11 13 14 11 12 11 17 17 23 16 16 18 13 11 17 8
39 41 42 39 38 36 30 19 14 19 15 8 7 7 14 19 20 21 13 12 12 10 12 10 10 4 5 5 8 16 14 13 10 16 19 10 17 13 5 16 15 19 13 14
33 35 40 42 40 37 19 5 15 21 9 2 5 5 13 15 23 23 19 14 12 11 4 8 8 5 5 5 11 10 20 15 8 11 12 12 18 10 2 4 9 2 9 8
34 33 30 43 41 26 15 7 11 21 8 4 3 7 4 19 21 15 8 4 6 7 4 8 5 4 7 4 12 12 16 18 18 19 16 16 9 5 10 19 15 20 25 24
30 32 36 38 38 22 5 1 30 27 9 3 5 6 6 4 6 9 8 7 3 9 7 4 6 3 6 10 10 19 23 19 20 21 17 16 3 9 11 19 18 21 22 20
37 40 40 28 11 7 5 25 29 8 5 7 7 5 6 6 4 5 5 6 6 1 7 5 9 9 12 11 12 9 3 2 10 13 6 12 12 10 11 14 23 21 22 21
36 19 6 8 12 42 29 5 4 4 1 2 4 0 3 6 4 8 6 3 6 6 8 4 7 10 12 12 12 9 3 3 6 9 10 11 12 11 12 14 19 19 25 23
4 4 8 29 19 8 4 5 6 6 6 5 3 8 7 1 7 4 2 5 4 6 7 11 5 5 8 5 9 6 4 7 8 6 4 12 19 21 21 20 20 21 24 25
10 16 12 5 5 5 5 4 3 5 7 8 8 6 6 2 3 5 2 4 5 5 5 5 5 4 6 8 7 7 8 15 19 18 18 21 24 21 24 22 23 25 25 23
5 6 5 3 2 3 5 5 2 3 4 7 7 7 4 3 4 5 4 5 7 5 6 5 3 4 8 10 9 11 11 16 28 22 20 23 24 21 25 28 23 26 26 23
5 4 5 4 4 5 4 4 4 3 2 11 12 6 3 3 3 4 5 5 2 5 5 5 4 8 9 9 7 8 14 19 26 23 21 23 24 25 24 28 23 26 27 24
7 7 7 8 4 5 6 4 4 7 4 4 7 6 3 2 3 3 3 4 6 4 3 2 5 8 11 12 11 8 15 22 22 21 24 22 24 26 28 26 25 27 28 28
6 10 5 7 5 12 10 13 9 10 8 1 3 4 3 2 2 4 2 1 4 1 2 2 7 12 12 14 12 14 16 23 24 23 23 25 27 28 28 27 26 26 27 26
5 7 10 5 4 6 7 8 9 10 5 2 4 4 2 2 4 2 2 1 2 3 5 7 10 13 16 17 19 17 20 24 24 26 25 27 27 28 29 30 25 26 25 25
Wind_Direction
250 248 243 238 237 236 237 222 230 163 144 192 204 224 211 267 276 285 285 259 246 258 285 292 278 255 229 345 1 336 350 281 240 243 256 226 223 215 214 225 215 216 222 234
250 244 240 237 234 226 189 225 215 172 172 212 214 223 229 238 235 243 255 274 220 357 275 280 274 266 269 255 8 2 2 327 282 255 260 257 251 243 223 193 193 215 220 236
248 243 239 235 231 226 209 217 211 197 206 225 217 214 227 223 223 239 249 254 285 294 282 275 273 290 320 326 316 31 28 258 235 247 244 212 213 216 213 206 225 228 226 230
247 243 240 234 228 222 212 208 218 205 203 215 210 213 218 219 225 220 209 245 235 235 254 254 253 266 269 269 215 357 111 270 281 287 243 240 198 205 247 243 232 222 231 231
246 243 239 234 227 221 219 213 188 187 227 181 210 210 217 223 221 226 223 237 230 229 236 227 269 255 279 284 124 114 169 272 307 288 252 225 235 251 256 254 274 272 251 238
245 240 238 235 224 216 222 219 186 199 207 209 203 217 221 228 223 239 231 236 237 247 243 244 253 258 260 254 276 275 197 251 300 257 279 228 234 224 235 255 228 262 229 233
243 239 235 230 226 219 222 197 155 194 225 203 211 215 216 219 219 225 226 227 236 249 274 288 268 254 252 254 245 224 220 268 293 296 182 232 249 191 218 238 245 249 256 265
244 239 233 229 224 222 219 204 197 197 233 225 219 215 212 218 220 231 236 234 232 315 310 309 292 288 253 245 233 227 215 205 254 259 217 263 240 199 206 215 242 247 241 250
243 239 233 225 220 218 219 217 203 200 221 223 207 203 208 210 211 241 246 249 245 254 280 271 250 238 273 258 225 213 191 215 195 245 264 226 277 217 53 26 250 256 213 214
238 234 230 224 217 214 210 216 198 201 220 197 193 205 200 193 200 224 200 229 216 200 210 234 253 257 278 263 277 163 159 197 206 198 249 289 259 278 332 186 231 327 111 267
231 224 220 215 211 208 202 208 191 205 223 191 200 198 187 186 203 197 201 187 196 163 187 200 200 239 230 224 243 229 182 172 185 127 210 282 256 19 273 261 227 295 247 238
228 221 215 209 207 198 195 206 188 190 207 233 187 224 241 200 197 207 207 208 189 191 180 204 195 217 227 229 243 207 235 202 186 188 244 267 282 289 227 293 315 283 326 271
223 219 213 207 202 197 191 189 165 182 185 263 257 230 243 239 246 205 208 223 228 235 230 240 215 216 194 227 246 252 224 199 228 184 247 252 267 267 236 233 247 309 317 308
220 214 209 204 198 195 190 191 172 169 118 236 246 221 235 220 222 227 209 207 107 222 185 240 247 225 214 239 243 241 254 182 202 242 271 278 280 265 264 250 220 243 281 282
214 209 199 197 191 191 188 192 180 184 170 202 229 218 221 205 212 219 214 210 206 228 232 256 252 230 238 245 263 261 244 240 224 249 267 273 284 287 175 261 240 234 231 256
191 190 193 188 181 178 158 144 193 195 170 318 302 294 192 193 189 188 193 197 211 216 198 228 226 207 212 251 242 237 249 242 256 292 312 295 292 289 259 77 6 156 183 212
179 178 181 172 167 159 164 182 156 175 129 133 264 271 206 178 179 184 169 134 206 187 228 216 180 207 198 206 242 246 268 277 296 301 321 312 263 240 87 101 83 65 59 59
173 173 153 153 149 127 197 327 152 147 115 139 213 250 123 145 149 170 160 181 193 207 192 188 177 200 213 246 233 240 250 264 278 283 274 265 165 92 70 95 72 76 81 77
118 128 134 119 122 124 142 130 135 102 134 186 200 292 139 133 140 123 123 148 201 289 199 207 167 205 224 229 243 244 277 248 288 300 158 116 105 89 92 89 104 104 92 87
101 100 98 107 120 110 108 105 112 148 200 152 241 269 173 156 131 178 148 127 143 173 217 158 219 245 231 216 186 198 254 9 321 172 164 142 132 113 85 89 93 100 100 103
71 69 81 110 96 75 63 136 157 150 189 192 212 200 138 130 149 123 73 149 144 178 226 190 233 253 218 174 156 127 86 69 60 37 120 126 131 127 114 100 98 101 104 105
92 105 89 91 91 143 123 126 166 183 183 160 152 151 134 140 124 104 127 143 167 230 163 203 247 193 102 109 105 88 96 96 75 68 82 94 103 111 110 108 106 104 104 106
72 66 63 112 137 117 148 157 129 151 175 160 150 136 116 99 78 100 144 156 196 142 201 227 220 89 84 87 93 91 89 97 96 88 88 92 98 102 107 106 103 102 97 97
68 65 64 68 36 45 39 62 84 31 10 128 118 102 121 127 114 141 151 198 203 223 233 233 136 109 82 79 81 120 116 99 92 102 95 97 100 101 98 97 102 102 99 97
57 36 44 49 27 17 0 341 66 3 314 112 98 79 101 115 129 173 133 191 223 219 248 21 99 109 109 102 96 104 94 99 102 100 101 101 100 94 94 94 98 99 99 97
55 41 39 7 35 11 13 11 17 4 346 3 88 132 141 158 156 161 185 243 234 308 350 50 91 95 94 99 102 95 99 97 99 98 100 100 98 96 95 93 92 93 95 96
54 46 10 34 44 17 357 348 343 323 341 81 78 81 76 3 67 101 15 283 328 96 75 76 89 98 100 96 90 96 97 96 97 98 98 98 99 99 96 93 91 91 90 89